This demonstration page uses our WeatherBlox Daily Observations layout. Learn more.

Left ArrowRight Arrow

Hourly Observations for November 2, 2020

Temp ( °F °C ) Dew Point ( °F °C ) Humidity (%) Winds ( mph kmh ) Pressure ( in mb ) Visibility ( mi km ) Precip ( " mm )
12:54 am 00:54 Clear 33 0.6 18 -7.8 54 54 Calm 30.46 1032 10 16.0934 0 0
1:54 am 01:54 Clear 32 0 18 -7.8 56 56 Calm 30.45 1031 10 16.0934 0 0
2:54 am 02:54 Clear 31 -0.6 18 -7.8 59 59 SSE 3 6 30.42 1030 10 16.0934 0 0
3:54 am 03:54 Clear 34 1.1 17 -8.3 50 50 Calm 30.41 1030 10 16.0934 0 0
4:54 am 04:54 Clear 31 -0.6 18 -7.8 59 59 SE 3 6 30.39 1029 10 16.0934 0 0
5:54 am 05:54 Clear 34 1.1 18 -7.8 52 52 SSE 5 7 30.38 1029 10 16.0934 0 0
6:54 am 06:54 Clear 30 -1.1 19 -7.2 64 64 S 6 9 30.37 1028 10 16.0934 0 0
7:54 am 07:54 Sunny 35 1.7 23 -5 61 61 Calm 30.37 1028 10 16.0934 0 0
8:54 am 08:54 Sunny 43 6.1 25 -3.9 49 49 WSW 6 9 30.36 1028 10 16.0934 0 0
9:54 am 09:54 Sunny 50 10 28 -2.2 43 43 WSW 9 15 30.33 1027 10 16.0934 0 0
10:54 am 10:54 Sunny 56 13.3 30 -1.1 37 37 W 8 13 30.32 1027 10 16.0934 0 0
11:54 am 11:54 Sunny 60 15.6 31 -0.6 33 33 SW 7 11 30.28 1025 10 16.0934 0 0
12:54 pm 12:54 Sunny 65 18.3 31 -0.6 28 28 WSW 7 11 30.24 1024 10 16.0934 0 0
1:54 pm 13:54 Sunny 68 20 30 -1.1 24 24 SSW 7 11 30.22 1023 10 16.0934 0 0
2:54 pm 14:54 Sunny 71 21.7 29 -1.7 21 21 VRB 3 6 30.2 1023 10 16.0934 0 0
3:54 pm 15:54 Sunny 69 20.6 29 -1.7 22 22 SSW 5 7 30.18 1022 10 16.0934 0 0
4:54 pm 16:54 Sunny 65 18.3 30 -1.1 27 27 S 3 6 30.18 1022 10 16.0934 0 0
5:54 pm 17:54 Clear 55 12.8 30 -1.1 38 38 Calm 30.19 1022 10 16.0934 0 0
6:54 pm 18:54 Clear 49 9.4 29 -1.7 46 46 Calm 30.2 1023 10 16.0934 0 0
7:54 pm 19:54 Clear 47 8.3 31 -0.6 54 54 Calm 30.19 1023 10 16.0934 0 0
8:54 pm 20:54 Clear 46 7.8 30 -1.1 54 54 Calm 30.18 1022 10 16.0934 0 0
9:54 pm 21:54 Clear 38 3.3 27 -2.8 65 65 Calm 30.18 1022 8 12.87472 0 0
10:54 pm 22:54 Clear 36 2.2 27 -2.8 70 70 Calm 30.17 1022 7 11.26538 0 0
11:54 pm 23:54 Clear 35 1.7 27 -2.8 72 72 Calm 30.14 1021 8 12.87472 0 0

Powered by AerisWeather